Kosmos-397

operational
NORAD ID: 4964 Int'l Des: 1971-015 Owner: PKO Country: SU
LEOELLIPTICAL

About Kosmos-397

Description loading...

Live Position

Loading 3D Globe...

Upcoming Passes

Altitude History

Altitude vs Time

uPlot chart will show altitude changes over time

Two-Line Element Set

1 4964U 71015A 25278.40478792 .00000269 00000-0 16183-3 0 9991
2 4964 65.7219 296.0655 1029066 337.8327 18.1047 12.74854647635772
Epoch: Oct 5, 2025 • Age: 9 hours

Current Status

Altitude 627.2 km
Velocity 7.90 km/s
Sub-Earth Point -39.76°S, 25.47°W
Type other

Large Constellations

Loading constellations...